Location: Lane
(33.5226°N, 79.8788°W)
Time: 07:16:37
(UTC+00:00)

Explorer 7 - Pass Details

Date: 06 October 2022
Orbit: 481 x 665 km, 50.3° (Epoch: 28 November)

Event Time Altitude Azimuth Distance (km) Brightness Sun altitude
Rises 21:27:49 0° 309° (NW) 2,914 11.0 17.3°
Reaches altitude 10° 21:30:12 10° 308° (NW) 1,977 10.2 16.9°
Maximum altitude 21:34:42 71° 224° (SW) 625 7.7 16.0°
Drops below altitude 10° 21:38:55 10° 141° (SE) 1,849 9.3 15.1°
Sets 21:41:06 0° 139° (SE) 2,709 10.1 14.7°
